Flag for Switzerland Weather past 2 weeks in Stans, Nidwalden, Switzerland

Now
60 °F

Cool.


Feels Like: 60 °F
Forecast: 42 / 70 °F
Wind: 2 mph from Northeast

Location: Giswil

Current Time: Aug 20, 2014 at 11:05:27 AM

Latest Report: Aug 20, 2014 at 10:00 AM


Visibility: N/A

Pressure: 30.03 "Hg

Humidity: 74%

Dew point: 51 °F

Location of StansLocation

Historic Weather in Stans — Graph

°F

Stans temperature yesterday

Maximum temperature yesterday: 66 °F (at 4:00 PM)
Minimum temperature yesterday: 54 °F (at 12:00 AM)
Average temperature yesterday: 60 °F

Past Weeks' High & Low Weather Summary

 TemperatureHumidityPressure
High82 °F (Aug 10, 5:00 PM)100% (Aug 6, 6:00 AM)30.25 "Hg (Aug 6, 6:00 AM)
Low43 °F (Aug 17, 6:00 AM)47% (Aug 17, 3:00 PM)29.69 "Hg (Aug 13, 10:00 AM)
Average62 °F83%30.00 "Hg
* Reported Aug 5 9:00 AM — Aug 20 9:00 AM, Stans, Weather by CustomWeather, © 2014

Note: Actual official high and low records may vary slightly from our data, if they occured in-between our weather recording intervals... More about our weather records

Advertising

Stans weather history for previous 24 hours

 ConditionsComfort  
Time TempWeatherWind HumidityBarometerVisibility
9:00 AM
Aug 20
59 °FCool.1 mph88%30.04 "HgN/A
8:00 AM57 °FCool.1 mph94%30.03 "HgN/A
7:00 AM56 °FCool.1 mph94%30.03 "HgN/A
6:00 AM56 °FCool.1 mph96%30.04 "HgN/A
5:00 AM57 °FCool.1 mph95%30.04 "HgN/A
4:00 AM57 °FCool.1 mph96%30.04 "HgN/A
3:00 AM57 °FCool.1 mph95%30.03 "HgN/A
2:00 AM58 °FCool.No wind95%30.03 "HgN/A
1:00 AM59 °FCool.2 mph91%30.03 "HgN/A
12:00 AM59 °FCool.1 mph92%30.03 "HgN/A
11:00 PM
Aug 19
59 °FCool.1 mph95%30.02 "HgN/A
10:00 PM60 °FCool.1 mph93%30.01 "HgN/A
9:00 PM60 °FCool.No wind94%29.99 "HgN/A
8:00 PM63 °FMild.1 mph84%29.96 "HgN/A
7:00 PM64 °FMild.1 mph81%29.94 "HgN/A
6:00 PM65 °FMild.1 mph78%29.93 "HgN/A
5:00 PM66 °FMild.No wind71%29.93 "HgN/A
4:00 PM66 °FMild.3 mph67%29.92 "HgN/A
3:00 PM66 °FMild.1 mph68%29.92 "HgN/A
2:00 PM64 °FMild.1 mph71%29.93 "HgN/A
1:00 PM63 °FMild.3 mph76%29.94 "HgN/A
12:00 PM62 °FCool.2 mph83%29.96 "HgN/A
11:00 AM61 °FCool.3 mph84%29.95 "HgN/A
Weather by CustomWeather, © 2014

See weather overviewHow to use our weather pages